M.P.E.C. 2023-N28 Issued 2023 July 8, 22:18 UT The Minor Planet Electronic Circulars contain information on unusual minor planets, routine data on comets and natural satellites, and occasional editorial announcements. They are published on behalf of Division F of the International Astronomical Union by the Minor Planet Center, Smithsonian Astrophysical Observatory, Cambridge, MA 02138, U.S.A. Prepared using the Tamkin Foundation Computer Network MPC@CFA.HARVARD.EDU URL https://www.minorplanetcenter.net/ ISSN 1523-6714 2023 NE Observations: K23N00E C2023 06 18.44872418 26 13.210+45 56 20.48 23.51GVEN028F52 K23N00E C2023 06 18.45960418 26 12.587+45 56 09.02 23.44GVEN028F52 K23N00E C2023 06 18.46218818 26 12.451+45 56 06.05 22.92GVEN028F52 K23N00E C2023 06 18.47313918 26 11.762+45 55 53.98 23.88GVEN028F52 K23N00E C2023 06 18.47571718 26 11.668+45 55 51.19 23.59GVEN028F52 K23N00E C2023 06 27.45313618 20 02.180+40 40 03.73 21.55GVEN028F51 K23N00E C2023 06 27.46749918 20 00.680+40 39 09.70 21.38GVEN028F51 K23N00E C2023 06 27.47933518 19 59.426+40 38 24.51 21.79GVEN028F51 K23N00E C2023 06 27.49780218 19 57.499+40 37 13.47 22.08GVEN028F51 K23N00E* C2023 07 07.29958118 01 46.406+12 06 20.53 19.01wXEN028F52 K23N00E C2023 07 07.31105918 01 43.146+12 01 28.49 19.12wXEN028F52 K23N00E C2023 07 07.32258418 01 39.819+11 56 33.78 19.05wXEN028F52 K23N00E C2023 07 07.33420018 01 36.433+11 51 36.04 19.01wXEN028F52 K23N00E C2023 07 07.42528118 01 09.065+11 12 03.21 VEN028F52 K23N00E C2023 07 07.42678118 01 08.602+11 11 23.36 VEN028F52 K23N00E KC2023 07 07.77036 18 00 06.68 +08 36 31.4 19.0 VZEN028M49 K23N00E KC2023 07 07.77891 18 00 04.25 +08 32 28.0 19.1 VZEN028M49 K23N00E KC2023 07 07.78819 18 00 01.54 +08 28 02.7 19.1 VZEN028M49 K23N00E KC2023 07 07.79612 17 59 59.17 +08 24 16.2 VEN028M21 K23N00E HC2023 07 07.80488 17 59 56.59 +08 20 04.7 VEN028M21 K23N00E KC2023 07 07.81505 17 59 53.522+08 15 10.91 18.5 GXEN028L87 K23N00E KC2023 07 07.82120 17 59 51.619+08 12 13.82 17.6 GXEN028L87 K23N00E KC2023 07 07.82671517 59 49.274+08 05 38.40 18.5 rZEN028L34 K23N00E KC2023 07 07.82734 17 59 49.704+08 09 16.88 18.8 GXEN028L87 K23N00E KC2023 07 07.85080217 59 42.23 +07 53 30.1 18.7 GVEN028L06 K23N00E KC2023 07 07.85529617 59 40.94 +07 51 18.7 17.6 GVEN028L06 K23N00E KC2023 07 07.86117417 59 39.19 +07 48 27.5 17.9 GVEN028L06 K23N00E KC2023 07 07.86497817 59 38.11 +07 46 36.4 18.5 GVEN028L06 K23N00E KC2023 07 07.86589 17 59 37.21 +07 46 26.9 18.6 GVEN028C82 K23N00E KC2023 07 07.86870617 59 35.84 +07 44 31.9 19.2 GVEN028G34 K23N00E KC2023 07 07.87113 17 59 35.65 +07 43 52.8 18.5 GVEN028C82 K23N00E KC2023 07 07.87611 17 59 32.87 +07 41 01.6 18.8 GXEN028G02 K23N00E KC2023 07 07.87653 17 59 33.91 +07 41 13.7 18.4 GVEN028C82 K23N00E 1C2023 07 07.87744 17 59 33.65 +07 40 15.6 19.1 VXEN028033 K23N00E 1C2023 07 07.87773 17 59 33.56 +07 40 07.7 19.3 VXEN028033 K23N00E 1C2023 07 07.87801 17 59 33.46 +07 39 59.6 18.8 VXEN028033 K23N00E 1C2023 07 07.87842 17 59 33.34 +07 39 46.9 19.0 VXEN028033 K23N00E KC2023 07 07.87900 17 59 32.01 +07 39 36.5 18.9 GXEN028G02 K23N00E KC2023 07 07.88188 17 59 31.19 +07 38 11.7 18.8 GXEN028G02 K23N00E KC2023 07 07.88490 17 59 30.26 +07 36 43.2 18.7 GXEN028G02 K23N00E KC2023 07 07.88533917 59 31.00 +07 36 23.2 18.4 GVEN028G34 K23N00E KB2023 07 07.89172117 59 29.726+07 33 18.97 18.7 GXEN028K74 K23N00E KB2023 07 07.90030617 59 27.173+07 29 06.00 19.0 GXEN028K74 K23N00E KB2023 07 07.90062817 59 27.522+07 28 53.47 18.6 GXEN028B72 K23N00E KB2023 07 07.90245 17 59 29.172+07 28 32.74 19.0 VZEN028J57 K23N00E KB2023 07 07.90676 17 59 27.876+07 26 25.37 19.0 VZEN028J57 K23N00E KB2023 07 07.90744417 59 25.463+07 25 31.79 18.6 GXEN028B72 K23N00E KB2023 07 07.90876517 59 24.650+07 24 55.62 18.6 GXEN028K74 K23N00E KB2023 07 07.91108 17 59 26.558+07 24 18.18 18.9 VZEN028J57 K23N00E KC2023 07 07.91376017 59 25.114+07 22 21.94 19.4 GVEN028J95 K23N00E KB2023 07 07.91436717 59 23.416+07 22 06.65 18.8 GXEN028B72 K23N00E KC2023 07 07.91548617 59 21.962+07 22 15.46 19.5 rZEN028L34 K23N00E KC2023 07 07.92726417 59 21.437+07 15 50.00 19.1 GXEN028Z43 K23N00E KC2023 07 07.92789 17 59 18.76 +07 15 47.9 19.3 GXEN028K83 K23N00E KC2023 07 07.92972 17 59 18.19 +07 14 52.8 19.3 GXEN028K83 K23N00E KC2023 07 07.93019117 59 20.021+07 14 14.32 19.1 GVEN028Z80 K23N00E KC2023 07 07.93080317 59 17.41 +07 14 13.5 18.3 GXEN028595 K23N00E KC2023 07 07.93150 17 59 17.70 +07 13 59.8 19.4 GXEN028K83 K23N00E KC2023 07 07.93308417 59 19.699+07 12 57.64 18.9 GXEN028Z43 K23N00E KC2023 07 07.93599017 59 15.82 +07 11 39.4 17.9 GXEN028595 K23N00E KC2023 07 07.94116517 59 14.27 +07 09 04.9 18.3 GXEN028595 K23N00E KC2023 07 07.94320517 59 16.375+07 07 45.88 18.4 GVEN028J95 K23N00E HC2023 07 07.94361 17 59 12.26 +07 12 19.1 VEN028M21 K23N00E KC2023 07 07.94487517 59 15.655+07 06 55.62 19.0 GVEN028Z80 K23N00E KC2023 07 07.94580 17 59 13.26 +07 06 52.0 18.6 GVEN028104 K23N00E KC2023 07 07.94870317 59 14.736+07 05 02.00 18.0 GVEN028J95 K23N00E KC2023 07 07.95194 17 59 09.55 +07 08 09.0 18.6 GVEN028M21 K23N00E KC2023 07 07.95728 17 59 09.73 +07 01 08.3 18.3 GVEN028104 K23N00E hC2023 07 07.96954917 59 05.47 +06 54 55.3 18.1 GVEN028L01 K23N00E hC2023 07 07.97018617 59 05.28 +06 54 36.2 18.1 GVEN028L01 K23N00E hC2023 07 07.97341717 59 04.28 +06 52 59.2 19.5 GVEN028L01 K23N00E KC2023 07 08.00575917 58 53.690+06 37 05.74 17.1 rZEN028L34 K23N00E 1C2023 07 08.04619 17 58 43.60 +06 15 49.8 18.9 VXEN028033 K23N00E 1C2023 07 08.04648 17 58 43.55 +06 15 41.0 18.9 VXEN028033 K23N00E 1C2023 07 08.04677 17 58 43.45 +06 15 32.1 18.8 VXEN028033 K23N00E C2023 07 08.18221517 58 25.473+05 06 16.69 18.7 GVEN028654 K23N00E C2023 07 08.18422917 58 24.827+05 05 13.26 18.7 GVEN028654 K23N00E C2023 07 08.36231617 57 25.506+03 29 30.12 18.8 GVEN028654 K23N00E C2023 07 08.36430417 57 24.812+03 28 24.77 18.8 GVEN028654 K23N00E KC2023 07 08.85766617 55 23.55 -01 18 20.3 17.9 GVEN028G17 K23N00E KC2023 07 08.86452517 55 21.09 -01 22 32.5 18.2 GVEN028G17 K23N00E KC2023 07 08.87138517 55 18.64 -01 26 44.5 18.1 GVEN028G17 K23N00E KC2023 07 08.89059717 55 08.32 -01 38 49.6 18.9 GXEN028L18 K23N00E KC2023 07 08.89412917 55 07.07 -01 40 59.2 18.5 GXEN028L18 K23N00E KC2023 07 08.89765917 55 05.81 -01 43 10.4 18.8 GXEN028L18 K23N00E KC2023 07 08.90118817 55 04.54 -01 45 20.5 18.0 GXEN028L18 Observer details: 033 Karl Schwarzschild Observatory, Tautenburg. Observers S. Melnikov, C. Hoegner, F. Ludwig, B. Stecklum. Measurer B. Stecklum. 1.34-m f/3 Schmidt + CCD. 104 San Marcello Pistoiese. Observers P. Bacci, M. Maestripieri, M. D. Grazia. Measurers P. Bacci, L. Tesi, G. Fagioli. 0.60-m F4 Reflector + CCD. 595 Farra d'Isonzo. Observers G. Ierman, N. Moretta, E. Pettarin. Measurer E. Pettarin. 0.61-m f/4.5 reflector + CCD. 654 Table Mountain Observatory, Wrightwood-PHMC. Observers N. Evans, P. Choi, N. Saini, C. Zhai, R. Trahan, M. Shao. 1.0-m Reflector + CCD. B72 Soerth. Observer B. Koch. 0.36-m f/7.6 Schmidt-Cassegrain + CMO. C82 Osservatorio Astronomico Nastro Verde, Sorrento. Observer N. Ruocco. 0.35-m f/6.3 0.35 m f/6.3 Schmidt-Cassegrain + CCD. F51 Pan-STARRS 1, Haleakala. Observers J. Bulger, K. Chambers, T. Lowe, P. Minguez, A. Schultz, I. Smith. Measurers S. Chastel, J. Fairlamb, M. Huber, Y. Ramanjooloo, R. Wainscoat, R. Weryk. 1.8-m Ritchey-Chretien + CCD. F52 Pan-STARRS 2, Haleakala. Observers J. Bulger, K. Chambers, T. Dukes, T. Lowe, P. Minguez, A. Schultz, I. Smith. Measurers S. Chastel, J. Fairlamb, M. Huber, Y. Ramanjooloo, R. Wainscoat, R. Weryk, K. Chambers, T. de Boer, J. Bulger, H. Gao, C.-C. Lin, T. Lowe, E. Magnier, P. Minguez, A. Schultz, I. Smith. 1.8-m Ritchey-Chretien + CCD. G02 KYSUCE Observatory, Kysucke Nove Mesto. Observer M. Urbanik. 0.40-m f/5.5 Corrected Dall-Kirkham + CCD. G17 BAS Observatory, Scandicci. Observer L. Grazzini. 0.20-m f/10 Schmidt- Cassegrain + CCD + f/6.3 focal reducer. G34 Oberfrauendorf. Observer T. Felber. 0.35-m f/6.3 Schmidt-Cassegrain + CCD. J57 Centro Astronomico Alto Turia, Valencia. Observer A. Fornas. Measurers A. Fornas, G. Fornas, E. Arce, V. Mas. 0.43-m f/6.8 Reflector 0.4m + CMO. J95 Great Shefford. Observer P. Birtwhistle. 0.41-m f/6.3 Schmidt-Cassegrain + CCD. K74 Muensterschwarzach Observatory, Schwarzach. Observer C. Gerhard. 0.30-m f/3.75 reflector + CMO. K83 Beppe Forti Astronomical Observatory, Montelupo. Observers M. Tombelli, A. Mazzanti, F. Cheli, S. Morelli, A. Squilloni, L. Grazzini, M. Iozzi, M. Lombardo, G. Ferrini, E. Biscardi, P. Fini. Measurers M. Tombelli, F. Bernardi. 0.40-m f/8 Ritchey-Chretien + CCD. L01 Visnjan Observatory, Tican. Observers K. Korlevic, L. Poropat. Measurer K. Korlevic. 1.0-m f/2.9 reflector + CCD. L06 Sormano 2 Observatory, Bellagio Via Lattea. Observer G. Ventre. Measurer P. Sicoli. 0.36m Schmidt Cassegrain + CCD. L18 QOS Observatory, Zalistsi. Observer O. V. Kravchenko. Measurer A. M. Kozhukhov. 0.50-m f/3.8 reflector + CCD. L34 Galhassin Robotic Telescope, Isnello. Observer A. Nastasi. 0.40-m f/3.8 400mm Reflector + CCD. L87 Moonbase South Observatory, Hakos. Observer G. Duszanowicz. Measurer J. Camarasa. 0.36-m f/7.7 reflector + CCD. M21 Schiaparelli Southern Observatory, Hakos. Observers A. Aletti, F. Bellini, L. Buzzi, G. Galli. Measurer L. Buzzi. 0.36-m f/8.4 reflector + CCD. M49 IAS Remote Observatory, Hakos. Observers D. Husar, M. Junius. Measurer D. Husar. 0.25-m f/4.6 reflector + CCD. Z43 Landehen. Observer C. Ratinaud. 0.25-m f/4.7 reflector + CCD. Z80 Northolt Branch Observatory. Observer G. Wells. Measurers G. Wells, D. Bamberger. 0.25-m f/8.0 Ritchey-Chretien + CCD. Orbital elements: 2023 NE Earth MOID = 0.0263 AU Epoch 2023 Feb. 25.0 TT = JDT 2460000.5 Veres M 239.12131 (2000.0) P Q n 0.72944930 Peri. 210.35467 +0.70291950 +0.61169952 a 1.2221916 Node 107.30366 -0.55190725 +0.79095514 e 0.1621926 Incl. 22.34286 -0.44866755 -0.01461742 P 1.35 H 24.64 G 0.15 U 7 Residuals in seconds of arc 230618 F52 0.0 0.2- 230707 G34 0.3- 0.4- 230707 Z43 0.1+ 0.9+ 230618 F52 0.0 0.1- 230707 C82 0.4+ 1.4- 230707 595 0.2+ 0.9+ 230618 F52 0.1+ 0.3- 230707 G02 0.2- 1.4+ 230707 595 0.7+ 0.9+ 230618 F52 0.6- 0.5- 230707 C82 0.9- 2.0- 230707 J95 0.2+ 0.0 230618 F52 0.0 0.5- 230707 033 0.4+ 0.1+ 230707 M21 0.1- 1.2+ 230627 F51 0.0 0.1+ 230707 033 0.3+ 0.7+ 230707 Z80 0.4- 0.2- 230627 F51 0.2+ 0.3+ 230707 033 0.1+ 0.9+ 230707 104 0.4- 0.4+ 230627 F51 0.1+ 0.2+ 230707 033 0.1+ 0.2+ 230707 J95 0.2+ 0.4+ 230627 F51 0.0 0.2+ 230707 G02 0.2- 1.2+ 230707 M21 0.2+ 0.2+ 230707 F52 0.2+ 0.7+ 230707 G02 0.4+ 1.1+ 230707 104 0.3- 0.4+ 230707 F52 0.3+ 0.9+ 230707 G02 0.1- 1.4+ 230707 L01 0.1- 0.2+ 230707 F52 0.2+ 0.7+ 230707 G34 0.5+ 0.6- 230707 L01 0.0 0.3+ 230707 F52 0.2+ 0.9+ 230707 K74 0.0 0.2+ 230707 L01 0.3- 0.6+ 230707 F52 0.1+ 1.0+ 230707 K74 0.0 0.5+ 230708 L34 0.7- 0.7+ 230707 F52 0.0 0.8+ 230707 B72 0.6+ 0.4+ 230708 033 0.5- 0.2+ 230707 M49 0.1- 0.4+ 230707 J57 0.1- 0.0 230708 033 0.0 0.4+ 230707 M49 0.2+ 0.7+ 230707 J57 0.2+ 0.2- 230708 033 0.2- 0.4+ 230707 M49 0.1+ 0.5+ 230707 B72 0.0 0.3+ 230708 654 0.3+ 0.2+ 230707 M21 0.4- 1.1+ 230707 K74 0.0 0.3+ 230708 654 0.2+ 0.2+ 230707 M21 0.2+ 1.1+ 230707 J57 0.4+ 0.3+ 230708 654 0.4+ 0.0 230707 L87 0.3+ 0.1- 230707 J95 0.2+ 0.5+ 230708 654 0.1- 0.2+ 230707 L87 0.0 0.4+ 230707 B72 0.2+ 0.2+ 230708 G17 0.1- 0.0 230707 L34 0.1+ 1.1+ 230707 L34 0.6- 0.0 230708 G17 0.2- 0.2- 230707 L87 0.4- 0.8+ 230707 Z43 0.1- 0.1+ 230708 G17 0.0 0.1+ 230707 L06 0.3- 0.3+ 230707 K83 0.0 1.0+ 230708 L18 0.3- 0.8- 230707 L06 0.1+ 0.1- 230707 K83 0.1- 0.4+ 230708 L18 0.0 0.2+ 230707 L06 0.2- 0.4+ 230707 Z80 0.5- 0.8+ 230708 L18 0.1+ 0.5- 230707 L06 0.4+ 0.5+ 230707 595 0.2+ 0.4+ 230708 L18 0.0 0.0 230707 C82 0.2- 0.7- 230707 K83 0.8+ 0.4+ Ephemeris: 2023 NE a,e,i = 1.22, 0.16, 22 q = 1.0240 Date TT R. A. (2000) Decl. Delta r Elong. Phase V 2023 06 08 18 28 22.4 +47 25 32 0.2271 1.1034 107.2 61.5 23.8 ... 2023 06 23 18 23 44.2 +44 03 21 0.1295 1.0723 112.4 61.2 22.5 ... 2023 07 01 18 15 45.9 +35 44 53 0.07703 1.0582 120.9 55.5 21.2 ... 2023 07 07 18 02 39.9 +14 10 20 0.04151 1.0490 140.4 38.2 19.4 2023 07 08 17 59 02.0 +06 42 30 0.03685 1.0476 146.4 32.5 18.9 2023 07 09 17 54 38.0 -02 42 59 0.03301 1.0462 153.0 26.2 18.5 ... 2023 07 15 16 36 18.4 -71 41 15 0.03886 1.0387 123.9 54.3 19.7 ... 2023 07 23 07 50 45.3 -77 23 20 0.08583 1.0310 97.7 77.6 22.1 ... 2023 08 07 06 51 42.6 -67 52 47 0.1810 1.0239 88.0 81.9 23.8 M. P. C. Staff (C) Copyright 2023 MPC M.P.E.C. 2023-N28
